Simultaneous Nadir Overpasses (SNOs) Predictions

Prediction of SNOs between GOES-15 and METOP-B Satellite Orbit:

Table of predicted SNOs for the next 14.0 days since TLE Epoch: 2/17/2017
Index Date Time (GOES-15) GOES-15 Lat,Lon METOP-B Lat,Lon Distance(km) Time Diff (sec)
1 02/19/2017 06:39:11 -0.04,-135.36 -0.45,-137.14 203.99 80
2 02/20/2017 06:21:12 -0.04,-135.34 0.66,-132.15 363.58 80
3 02/21/2017 18:40:04 0.03,-135.31 0.35,-136.71 160.07 80
4 02/22/2017 18:16:45 0.03,-135.29 -0.76,-131.72 406.99 80
5 02/24/2017 06:35:45 -0.03,-135.27 -0.27,-136.32 119.04 80
6 02/25/2017 06:17:46 -0.03,-135.25 0.83,-131.32 447.80 80
7 02/26/2017 18:36:38 0.03,-135.21 0.17,-135.89 76.78 80
8 02/27/2017 18:13:18 0.03,-135.19 -0.94,-130.89 489.64 80
9 03/01/2017 06:32:19 -0.03,-135.15 -0.09,-135.49 37.57 80




NCC Satellite Simultaneous Nadir Overpasses (SNOs) Prediction Service
